Погода в Шабуре

Россия / Республика Бурятия     51°28′34″N   108°19′05″E
темп.,
°C
ветер,
м/с
пор.,
м/с
влажн.,
%
обл.,
%
осадки,
мм/ч
давл.,
гПа
погр.,
м
13 мая, чт
чт1323:00+3зсз228167 0.0 101136
02:00+1з118884 0.0 101212
05:000з118933 0.0 101210
08:00+5сз2353100 0.1 10111505
11:00+6зсз5640100 0.1 10112004
14:00+8сз792599 0.1 10102859
17:00+7сз6924100 0.0 10112966
20:00+4ссз483631 0.0 1013497
14 мая, пт
пт1423:00−1з22605 0.0 101733
02:00−2з22665 0.0 101732
05:00−3з22753 0.0 101831
08:00+3сз36565 0.0 1017718
11:00+8сз45405 0.0 10151615
14:00+10сз463199 0.0 10132496
17:00+11зсз452939 0.0 10132221
20:00+6зсз25440 0.0 101586
15 мая, сб
сб1523:00+3юз11520 0.0 101711
02:00+2ю22540 0.0 101719
05:00+1ю32570 0.0 101738
08:00+8ююз411300 0.0 1014612
11:00+14зюз692474 0.0 10121765
14:00+14зсз6630100 0.0 10122278
17:00+7сз6961100 0.0 1016873
20:00+5сз49600 0.0 1017816
16 мая, вс
вс1623:00+2юз2267100 0.0 101936
02:00+1юз22685 0.0 101932
05:00+1юз237214 0.0 101862
08:00+9зюз3856100 0.0 1015841
11:00+14зюз61037100 0.0 10121572
14:00+15зсз61035100 0.0 10102323
17:00+12сз61256100 0.0 10121300
20:00+9сз4127379 0.0 1013917
17 мая, пн
пн1723:00+7з2786100 0.0 1013337
02:00+7з118699 0.1 101226
05:00+7юз118795 0.0 101134
08:00+10з2569100 0.0 10101026
11:00+12сз3561100 0.0 10081254
14:00+9ссз4877100 0.3 1010717
17:00+10сз467191 0.9 10091034
20:00+7зсз2281100 0.9 101034